Flag for Russia Weather past 2 weeks in Sochi, Russia

Now
86 °F

Clear.


Feels Like: 88 °F
Forecast: 68 / 89 °F
Wind: 6 mph from West

Location: Adler

Current Time: Sep 4, 2015 at 1:23:50 PM

Latest Report: Sep 4, 2015 at 1:00 PM


Visibility: N/A

Pressure: 29.83 "Hg

Humidity: 52%

Dew point: 66 °F

Location of SochiLocation

Historic Weather in Sochi — Graph

°F

Sochi temperature yesterday

Maximum temperature yesterday: 86 °F (at 10:00 AM)
Minimum temperature yesterday: 66 °F (at 5:00 AM)
Average temperature yesterday: 77 °F

Past Weeks' High & Low Weather Summary

 TemperatureHumidityPressure
High88 °F (Aug 20, 2:00 PM)88% (Aug 24, 5:00 PM)30.09 "Hg (Aug 24, 5:00 PM)
Low64 °F (Aug 24, 5:00 PM)43% (Sep 3, 9:30 AM)29.65 "Hg (Aug 24, 4:30 AM)
Average76 °F68%29.92 "Hg
* Reported Aug 20 12:00 Noon — Sep 4 12:00 Noon, Sochi, Weather by CustomWeather, © 2015

Note: Actual official high and low records may vary slightly from our data, if they occured in-between our weather recording intervals... More about our weather records

Advertising

Sochi weather history for previous 24 hours

 ConditionsComfort  
Time TempWeatherWind HumidityBarometerVisibility
12:00 PM
Fri, Sep 4
84 °FClear.6 mph51%29.86 "HgN/A
11:30 AM84 °FClear.6 mph48%29.86 "HgN/A
11:00 AM82 °FClear.8 mph58%29.86 "HgN/A
10:30 AM84 °FClear.6 mph58%29.86 "HgN/A
10:00 AM84 °FClear.1 mph58%29.86 "HgN/A
9:30 AM84 °FClear.1 mph58%29.83 "HgN/A
9:00 AM82 °FClear.3 mph55%29.86 "HgN/A
8:30 AM79 °FClear.3 mph48%29.83 "HgN/A
8:00 AM77 °FClear.3 mph51%29.86 "HgN/A
7:30 AM75 °FClear.6 mph54%29.86 "HgN/A
7:00 AM72 °FClear.6 mph61%29.83 "HgN/A
6:30 AM72 °FClear.6 mph61%29.83 "HgN/A
6:00 AM68 °FClear.6 mph69%29.83 "HgN/A
5:30 AM68 °FClear.3 mph69%29.83 "HgN/A
5:00 AM70 °FClear.8 mph64%29.83 "HgN/A
4:30 AM70 °FClear.8 mph64%29.83 "HgN/A
4:00 AM72 °FClear.8 mph61%29.83 "HgN/A
3:30 AM70 °FClear.8 mph69%29.83 "HgN/A
3:00 AM70 °FClear.1 mph73%29.83 "HgN/A
2:30 AM70 °FClear.6 mph69%29.83 "HgN/A
2:00 AM70 °FClear.6 mph69%29.83 "HgN/A
1:30 AM70 °FClear.6 mph73%29.83 "HgN/A
12:30 AM70 °FClear.6 mph73%29.83 "HgN/A
12:00 AM70 °FClear.6 mph73%29.83 "HgN/A
11:30 PM
Thu, Sep 3
70 °FClear.6 mph78%29.83 "HgN/A
11:00 PM70 °FClear.6 mph78%29.83 "HgN/A
10:30 PM72 °FClear.6 mph73%29.83 "HgN/A
10:00 PM72 °FClear.3 mph78%29.80 "HgN/A
9:30 PM73 °FClear.6 mph69%29.80 "HgN/A
9:00 PM73 °FClear.1 mph69%29.80 "HgN/A
8:30 PM73 °FClear.6 mph74%29.80 "HgN/A
8:00 PM75 °FClear.3 mph69%29.80 "HgN/A
7:30 PM79 °FClear.1 mph61%29.80 "HgN/A
7:00 PM82 °FClear.3 mph51%29.80 "HgN/A
6:30 PM82 °FClear.8 mph51%29.80 "HgN/A
6:00 PM82 °FClear.10 mph55%29.80 "HgN/A
5:30 PM84 °FClear.10 mph45%29.80 "HgN/A
5:00 PM84 °FClear.10 mph45%29.83 "HgN/A
4:30 PM84 °FClear.10 mph48%29.83 "HgN/A
4:00 PM84 °FClear.10 mph51%29.83 "HgN/A
3:30 PM84 °FClear.10 mph51%29.83 "HgN/A
3:00 PM84 °FClear.13 mph55%29.83 "HgN/A
2:30 PM84 °FClear.10 mph55%29.86 "HgN/A
2:00 PM86 °FClear.8 mph46%29.86 "HgN/A
1:30 PM84 °FClear.8 mph51%29.86 "HgN/A
1:00 PM84 °FClear.8 mph48%29.86 "HgN/A
Weather by CustomWeather, © 2015

See weather overviewHow to use our weather pages